Location: Bowden
(51.9167°N, 114.0333°W)
Time: 00:40:35
(UTC+00:00)

Envisat - Pass Details

Date: 09 December 2021
Orbit: 764 x 766 km, 98.2° (Epoch: 28 January)

Event Time Altitude Azimuth Distance (km) Brightness Sun altitude
Rises 12:24:34 0° 17° (NNE) 3,248 6.4 -27.6°
Reaches altitude 10° 12:26:56 10° 22° (NNE) 2,316 5.7 -27.2°
Maximum altitude 12:31:57 56° 100° (E) 915 3.6 -26.4°
Drops below altitude 10° 12:36:56 10° 179° (S) 2,298 5.5 -25.7°
Sets 12:39:16 0° 183° (S) 3,219 6.3 -25.3°
